This is the latest recevied weather packets stored in our database for station/object KC1DMA. If no packets are shown the sender has not sent any weather packets the latest 10 day(s).
| Time | Temp. | Humidity | Pressure | Rain* | Wind** | Luminosity | Snow |
|---|---|---|---|---|---|---|---|
| 1777675746 | 17.22° C | 39% | 1011.9 hPa | - | - | 145 W/m² | - |
| 1777675444 | 17.22° C | 39% | 1012 hPa | - | - | 145 W/m² | - |
| 1777675140 | 17.22° C | 39% | 1012 hPa | - | - | 145 W/m² | - |
| 1777674836 | 17.22° C | 39% | 1011.9 hPa | - | - | 145 W/m² | - |
| 1777674533 | 17.22° C | 39% | 1011.7 hPa | - | - | 145 W/m² | - |
| 1777674231 | 17.22° C | 39% | 1011.6 hPa | - | - | 145 W/m² | - |
| 1777673927 | 17.22° C | 39% | 1011.5 hPa | - | - | 145 W/m² | - |
| 1777673624 | 17.22° C | 39% | 1011.7 hPa | - | - | 185 W/m² | - |
| 1777673322 | 17.22° C | 39% | 1011.7 hPa | - | - | 185 W/m² | - |
| 1777673019 | 17.78° C | 38% | 1011.7 hPa | - | - | 193 W/m² | - |
| 1777672715 | 17.22° C | 35% | 1011.7 hPa | - | - | 209 W/m² | - |
| 1777672411 | 17.78° C | 36% | 1011.6 hPa | - | - | 232 W/m² | - |
| 1777672107 | 17.78° C | 36% | 1011.6 hPa | - | - | 232 W/m² | - |
| 1777671802 | 17.22° C | 36% | 1011.4 hPa | - | - | 246 W/m² | - |
| 1777671499 | 17.78° C | 37% | 1011.6 hPa | - | - | 276 W/m² | - |
| 1777671195 | 17.22° C | 37% | 1011.7 hPa | - | - | 286 W/m² | - |
| 1777670891 | 17.78° C | 35% | 1011.6 hPa | - | - | 302 W/m² | - |
| 1777670588 | 17.78° C | 36% | 1011.8 hPa | - | - | 321 W/m² | - |
| 1777670285 | 17.22° C | 38% | 1011.6 hPa | - | - | 334 W/m² | - |
| 1777669982 | 16.67° C | 35% | 1011.8 hPa | - | - | 347 W/m² | - |
| 1777669679 | 17.22° C | 35% | 1011.4 hPa | - | - | 366 W/m² | - |
| 1777669375 | 16.67° C | 36% | 1011.5 hPa | - | - | 381 W/m² | - |
| 1777669071 | 17.22° C | 37% | 1011.5 hPa | - | - | 410 W/m² | - |
| 1777668769 | 17.78° C | 38% | 1011.5 hPa | - | - | 418 W/m² | - |
| 1777668466 | 17.78° C | 35% | 1011.6 hPa | - | - | 435 W/m² | - |
* Rain since midnight (hover to see other rain measurements)
** Current wind speed in m/s (hover to see current wind gust speed)